GW0547 Weather Reports


Display with metric or nautical units.
time (UTC)temp
F
wind
direction
speed
MPH
gust
MPH
rain 1hr
in
rain 24hr
in
rain mn
in
humidity
%
barometer
mb
20260503035027 32 0 1.0 2.0 0.00 0.04 0.02 84 1013.2
20260503034545 32 352 0.0 2.0 0.00 0.04 0.02 84 1013.2
20260503034025 32 352 0.0 2.0 0.00 0.04 0.02 83 1013.2
20260503033526 32 352 0.0 2.0 0.00 0.04 0.02 83 1013.3
20260503033042 33 352 0.0 2.0 0.00 0.04 0.02 83 1013.3
20260503032525 33 352 0.0 2.0 0.00 0.04 0.02 82 1013.2
20260503032025 33 0 0.0 4.0 0.00 0.04 0.02 82 1013.2
20260503031548 33 0 0.0 4.0 0.00 0.04 0.02 82 1013.2
20260503031025 33 352 1.0 4.0 0.00 0.04 0.02 82 1013.2
20260503030527 33 0 1.0 2.0 0.00 0.04 0.02 82 1013.3
20260503030039 33 310 1.0 2.0 0.00 0.04 0.02 82 1013.2
20260503025527 33 310 0.0 2.0 0.00 0.06 0.02 82 1013.2
20260503025025 33 0 0.0 2.0 0.00 0.06 0.02 81 1013.2
20260503024536 33 0 0.0 0.0 0.00 0.06 0.02 81 1013.2
20260503024025 33 0 0.0 0.0 0.00 0.06 0.02 80 1013.3
20260503023525 33 0 0.0 1.0 0.00 0.06 0.02 80 1013.2
20260503023046 34 0 0.0 2.0 0.00 0.06 0.02 79 1013.2
20260503022525 34 0 0.0 2.0 0.00 0.06 0.02 79 1013.2
20260503022024 34 310 1.0 2.0 0.00 0.06 0.02 79 1013.2
20260503021543 34 310 0.0 2.0 0.00 0.06 0.02 79 1013.2
20260503021025 34 0 0.0 1.0 0.00 0.06 0.02 79 1013.3
20260503020525 35 0 0.0 2.0 0.00 0.06 0.02 79 1013.3
20260503020046 35 0 0.0 3.0 0.00 0.06 0.02 78 1013.2
20260503015525 35 310 0.0 5.0 0.00 0.09 0.02 78 1013.2
20260503015022 35 310 1.0 5.0 0.00 0.09 0.02 78 1013.2
20260503014538 35 313 2.0 5.0 0.00 0.09 0.02 77 1013.2
20260503014025 35 291 1.0 2.0 0.00 0.09 0.02 77 1013.2
20260503013527 36 291 0.0 4.0 0.00 0.09 0.02 77 1013.2
20260503013039 36 0 0.0 4.0 0.00 0.09 0.02 77 1013.2
20260503012524 36 0 1.0 6.0 0.00 0.09 0.02 76 1013.2
20260503012027 36 316 2.0 6.0 0.00 0.09 0.02 76 1013.3
20260503011550 36 301 2.0 5.0 0.00 0.09 0.02 76 1013.2
20260503011024 37 340 1.0 4.0 0.00 0.09 0.02 77 1013.2
20260503010524 37 321 0.0 4.0 0.00 0.09 0.02 77 1013.2
20260503010043 37 0 0.0 4.0 0.00 0.09 0.02 76 1013.2
20260503005524 37 298 1.0 6.0 0.00 0.12 0.02 75 1013.1
20260503005027 37 306 1.0 6.0 0.00 0.12 0.02 76 1013.0
20260503004539 37 311 0.0 3.0 0.00 0.12 0.02 76 1013.0
20260503004024 37 319 0.0 6.0 0.00 0.12 0.02 75 1013.0
20260503003523 37 321 2.0 7.0 0.00 0.12 0.02 74 1013.0
20260503003036 38 0 1.0 7.0 0.00 0.12 0.02 74 1013.0
20260503002527 38 313 2.0 6.0 0.00 0.12 0.02 73 1013.0
20260503002024 38 289 1.0 4.0 0.00 0.12 0.02 74 1013.0
20260503001548 38 315 1.0 4.0 0.00 0.12 0.02 74 1013.0
20260503001025 38 311 1.0 3.0 0.00 0.12 0.02 74 1013.0
20260503000522 39 328 1.0 4.0 0.00 0.12 0.02 73 1013.0
20260503000111 39 329 1.0 4.0 0.00 0.12 0.02 72 1012.9
20260502235524 39 314 1.0 9.0 0.00 0.12 0.02 71 1012.9
20260502235024 39 311 1.0 9.0 0.00 0.12 0.02 71 1012.9
20260502234539 39 298 2.0 9.0 0.00 0.12 0.02 70 1012.9
20260502234023 39 306 2.0 9.0 0.00 0.12 0.02 71 1012.8
20260502233524 40 300 1.0 4.0 0.00 0.12 0.02 72 1012.7
20260502233038 40 0 2.0 6.0 0.00 0.12 0.02 71 1012.7
20260502232524 40 348 1.0 6.0 0.00 0.12 0.02 71 1012.7
20260502232024 40 313 2.0 6.0 0.00 0.12 0.02 70 1012.6
20260502231547 40 312 0.0 11.0 0.00 0.12 0.02 70 1012.6
20260502231023 40 288 3.0 11.0 0.00 0.12 0.02 69 1012.6
20260502230523 41 304 3.0 9.0 0.00 0.12 0.02 69 1012.6
20260502230037 41 319 4.0 13.0 0.00 0.12 0.02 67 1012.5
20260502225523 41 315 3.0 13.0 0.00 0.12 0.02 69 1012.5
20260502225024 41 288 3.0 13.0 0.00 0.12 0.02 70 1012.6
20260502224554 41 43 1.0 4.0 0.00 0.12 0.02 71 1012.5
20260502224026 41 360 2.0 5.0 0.00 0.12 0.02 71 1012.5
20260502223523 41 323 2.0 7.0 0.00 0.12 0.02 71 1012.5
20260502223042 41 325 2.0 7.0 0.00 0.12 0.02 70 1012.5
20260502222522 42 352 2.0 9.0 0.00 0.12 0.02 69 1012.5
20260502222025 42 275 2.0 9.0 0.00 0.12 0.02 69 1012.5
20260502221540 42 282 2.0 7.0 0.00 0.12 0.02 69 1012.4
20260502221023 42 315 2.0 7.0 0.00 0.12 0.02 69 1012.4
20260502220525 42 301 1.0 6.0 0.00 0.12 0.02 70 1012.4
20260502220045 42 302 2.0 6.0 0.00 0.12 0.02 68 1012.4
20260502215524 42 9 2.0 6.0 0.00 0.12 0.02 67 1012.4
20260502215023 42 351 2.0 5.0 0.00 0.12 0.02 69 1012.4
20260502214547 43 313 2.0 6.0 0.00 0.12 0.02 67 1012.4
20260502214027 43 338 2.0 6.0 0.00 0.12 0.02 67 1012.3
20260502213524 43 350 2.0 7.0 0.00 0.12 0.02 68 1012.3
20260502213045 43 360 2.0 7.0 0.00 0.12 0.02 64 1012.4
20260502212524 43 326 2.0 5.0 0.00 0.12 0.02 67 1012.3
20260502212027 43 344 2.0 8.0 0.00 0.12 0.02 66 1012.3
20260502211540 43 344 2.0 8.0 0.00 0.12 0.02 65 1012.2
20260502211023 43 291 2.0 8.0 0.00 0.12 0.02 63 1012.3
20260502210525 43 18 1.0 8.0 0.00 0.12 0.02 61 1012.2
20260502210038 43 268 4.0 8.0 0.00 0.12 0.02 62 1012.4
20260502205527 42 313 3.0 10.0 0.00 0.12 0.02 62 1012.3
20260502205025 42 309 2.0 13.0 0.00 0.12 0.02 61 1012.3
20260502204549 42 310 4.0 13.0 0.00 0.12 0.02 59 1012.2
20260502204025 43 277 6.0 15.0 0.00 0.12 0.02 58 1012.2
20260502203525 43 290 3.0 15.0 0.00 0.12 0.02 60 1012.2
20260502203038 43 284 5.0 11.0 0.00 0.12 0.02 59 1012.3
20260502202524 43 298 5.0 12.0 0.00 0.12 0.02 57 1012.3
20260502202024 43 249 5.0 15.0 0.00 0.12 0.02 57 1012.4
20260502201541 43 306 7.0 15.0 0.00 0.12 0.02 56 1012.3
20260502201024 43 292 7.0 14.0 0.00 0.12 0.02 57 1012.3
20260502200524 43 288 5.0 15.0 0.00 0.12 0.02 59 1012.3
20260502200043 43 273 8.0 16.0 0.00 0.12 0.02 56 1012.4
20260502195522 43 256 7.0 16.0 0.00 0.12 0.02 56 1012.4
20260502195023 43 250 7.0 15.0 0.00 0.12 0.02 55 1012.4
20260502194537 44 316 3.0 15.0 0.00 0.12 0.02 58 1012.5
20260502194024 44 308 8.0 15.0 0.00 0.12 0.02 56 1012.5
20260502193526 44 309 4.0 17.0 0.00 0.12 0.02 58 1012.6
20260502193047 43 284 8.0 17.0 0.00 0.12 0.02 54 1012.7
20260502192524 44 268 5.0 15.0 0.00 0.12 0.02 54 1012.7
20260502192020 44 315 4.0 15.0 0.00 0.12 0.02 56 1012.7
20260502191554 44 257 2.0 8.0 0.00 0.12 0.02 59 1012.6
20260502191028 44 347 2.0 9.0 0.00 0.12 0.02 58 1012.8
20260502190528 44 343 3.0 11.0 0.00 0.12 0.02 58 1012.7
20260502190044 44 286 3.0 11.0 0.00 0.12 0.02 58 1012.8
20260502185524 43 281 3.0 13.0 0.00 0.12 0.02 58 1012.8
20260502185025 43 274 4.0 13.0 0.00 0.12 0.02 56 1012.8
20260502184543 43 282 8.0 13.0 0.00 0.12 0.02 54 1012.8
20260502184024 44 266 6.0 11.0 0.00 0.12 0.02 56 1012.7
20260502183524 44 300 5.0 12.0 0.00 0.12 0.02 55 1012.8
20260502183039 44 234 7.0 14.0 0.00 0.12 0.02 53 1012.8
20260502182524 45 298 5.0 14.0 0.00 0.12 0.02 54 1012.8
20260502182025 44 325 6.0 14.0 0.00 0.12 0.02 57 1012.7
20260502181542 44 266 7.0 14.0 0.00 0.12 0.02 55 1012.8
20260502181024 44 284 4.0 11.0 0.00 0.12 0.02 57 1012.7
20260502180524 44 314 3.0 11.0 0.00 0.12 0.02 56 1012.7
20260502164023 44 344 4.0 9.0 0.00 0.12 0.02 60 1012.7
20260502163524 44 325 4.0 9.0 0.00 0.12 0.02 63 1012.8
20260502163048 45 336 3.0 11.0 0.00 0.12 0.02 62 1012.8
20260502162524 45 360 4.0 11.0 0.00 0.12 0.02 63 1012.8
20260502162022 45 342 3.0 13.0 0.00 0.12 0.02 67 1012.9
20260502161557 45 355 3.0 13.0 0.00 0.12 0.02 67 1013.0
20260502161031 45 326 3.0 11.0 0.00 0.12 0.02 62 1012.8
20260502160524 45 299 3.0 11.0 0.00 0.12 0.02 69 1012.9
20260502152025 44 322 3.0 14.0 0.00 0.12 0.02 67 1013.0
20260502151549 43 11 3.0 14.0 0.00 0.12 0.02 70 1013.1
20260502151023 43 275 2.0 9.0 0.00 0.12 0.02 68 1013.1
20260502150524 44 328 4.0 12.0 0.00 0.12 0.02 72 1013.0
20260502130522 39 277 4.0 13.0 0.00 0.12 0.02 80 1013.2
20260502130104 39 297 3.0 11.0 0.00 0.12 0.02 81 1013.3
20260502123524 38 255 4.0 17.0 0.00 0.12 0.02 86 1013.2
20260502123108 37 298 4.0 17.0 0.00 0.12 0.02 87 1013.2
20260502122524 37 294 4.0 13.0 0.00 0.12 0.02 87 1013.2
20260502122030 38 274 3.0 10.0 0.00 0.12 0.02 89 1013.2
20260502121545 39 292 3.0 8.0 0.00 0.12 0.02 90 1013.2
20260502121025 39 0 2.0 7.0 0.00 0.12 0.02 91 1013.1
20260502120525 39 264 2.0 7.0 0.00 0.12 0.02 93 1013.1
20260502115525 38 0 2.0 6.0 0.00 0.12 0.02 92 1013.1
20260502115022 37 0 2.0 6.0 0.00 0.12 0.02 92 1013.1
20260502114545 38 289 1.0 3.0 0.00 0.12 0.02 93 1013.1
20260502114024 37 284 1.0 4.0 0.00 0.12 0.02 93 1013.1
20260502113522 37 302 1.0 4.0 0.00 0.12 0.02 92 1013.1
20260502113039 37 299 0.0 4.0 0.00 0.12 0.02 93 1013.1
20260502112523 37 315 1.0 4.0 0.00 0.12 0.02 93 1013.0
20260502112023 37 276 1.0 4.0 0.00 0.12 0.02 93 1013.1
20260502111545 37 320 1.0 4.0 0.00 0.12 0.02 93 1013.0
20260502111021 37 302 0.0 4.0 0.00 0.12 0.02 93 1012.9
20260502110524 37 286 1.0 4.0 0.00 0.12 0.02 93 1012.8
20260502110045 37 301 1.0 6.0 0.00 0.12 0.02 93 1012.7
20260502105521 37 0 0.0 6.0 0.00 0.12 0.02 93 1012.8
20260502105024 36 301 1.0 3.0 0.00 0.12 0.02 94 1012.7
20260502104542 36 302 1.0 4.0 0.00 0.12 0.02 93 1012.8
20260502104021 36 305 1.0 4.0 0.00 0.12 0.02 93 1012.7
20260502103522 36 290 2.0 4.0 0.00 0.12 0.02 93 1012.7
20260502103039 36 288 1.0 4.0 0.00 0.12 0.02 94 1012.7
20260502102521 36 299 1.0 5.0 0.00 0.12 0.02 94 1012.6
20260502102032 36 319 2.0 6.0 0.00 0.12 0.02 94 1012.5
20260502101548 36 278 3.0 6.0 0.00 0.12 0.02 94 1012.5
20260502101021 36 280 1.0 4.0 0.00 0.12 0.02 94 1012.5
20260502100521 36 291 1.0 4.0 0.00 0.12 0.02 94 1012.3
20260502091023 36 0 0.0 1.0 0.00 0.12 0.02 94 1011.9
20260502090523 36 0 0.0 1.0 0.00 0.12 0.02 94 1011.9
20260502071024 36 0 0.0 3.0 0.00 0.12 0.02 93 1011.8
20260502070523 36 0 0.0 3.0 0.00 0.12 0.02 93 1011.7
20260502070038 36 296 1.0 3.0 0.00 0.12 0.02 93 1011.8
20260502065522 36 296 0.0 2.0 0.00 0.12 0.02 93 1011.9
20260502065023 36 296 1.0 3.0 0.00 0.12 0.02 93 1012.0
20260502064544 36 296 1.0 3.0 0.00 0.12 0.02 93 1011.9
20260502064023 36 296 1.0 3.0 0.00 0.12 0.02 93 1011.9
20260502063527 36 318 1.0 3.0 0.00 0.12 0.02 93 1011.8
20260502063049 36 340 0.0 3.0 0.00 0.12 0.02 93 1011.6
20260502062524 36 340 1.0 3.0 0.00 0.12 0.02 93 1011.4
20260502062020 36 312 1.0 3.0 0.00 0.12 0.02 93 1011.5
20260502061539 37 286 1.0 2.0 0.00 0.12 0.02 94 1011.7
20260502061023 37 304 1.0 4.0 0.01 0.12 0.02 93 1011.7
20260502060525 37 304 0.0 4.0 0.01 0.12 0.02 93 1011.9
20260502060040 37 26 1.0 4.0 0.01 0.12 0.02 93 1011.9
20260502055525 37 0 1.0 4.0 0.01 0.12 0.02 93 1011.9
20260502055028 37 337 1.0 3.0 0.01 0.12 0.02 93 1011.7
20260502054544 37 344 1.0 3.0 0.01 0.12 0.02 93 1011.7
20260502054025 37 355 1.0 3.0 0.01 0.12 0.02 93 1011.8
20260502053525 37 352 1.0 5.0 0.01 0.12 0.02 93 1011.7
20260502053043 37 341 1.0 5.0 0.01 0.12 0.02 93 1011.9
20260502052525 37 342 2.0 5.0 0.01 0.12 0.02 93 1012.0
20260502052025 37 342 1.0 4.0 0.01 0.12 0.02 93 1012.0
20260502051541 37 326 1.0 4.0 0.01 0.12 0.02 93 1012.0
20260502051025 37 326 2.0 4.0 0.00 0.11 0.01 93 1012.0
20260502050525 37 340 2.0 3.0 0.00 0.11 0.01 93 1011.9
20260502050040 37 336 2.0 4.0 0.01 0.11 0.01 93 1012.0
20260502045525 37 340 2.0 4.0 0.01 0.11 0.01 93 1012.0
20260502045029 37 338 2.0 4.0 0.01 0.11 0.01 93 1012.0
20260502044545 37 333 2.0 4.0 0.01 0.11 0.01 93 1011.9
20260502044025 37 344 2.0 5.0 0.01 0.11 0.01 93 1011.9
20260502043523 37 335 3.0 5.0 0.01 0.11 0.01 93 1011.8
20260502043047 37 341 2.0 5.0 0.01 0.11 0.01 93 1011.8
20260502042525 37 337 3.0 5.0 0.01 0.11 0.01 92 1011.7
20260502042028 37 336 2.0 5.0 0.02 0.11 0.01 93 1011.6
20260502041546 37 336 2.0 4.0 0.02 0.11 0.01 92 1011.6
20260502041024 37 337 2.0 4.0 0.02 0.11 0.01 92 1011.6
20260502040525 37 343 2.0 4.0 0.03 0.11 0.01 92 1011.6
20260502040043 38 338 2.0 4.0 0.02 0.10 0.00 92 1011.6
20260502035528 38 336 2.0 4.0 0.02 0.10 0.10 92 1011.6